Change the Weather History Date:

Thursday, December 12, 2013

  Actual Average Record
Temperature  
Mean Temperature 37 °F -  
Max Temperature 42 °F 45 °F 59 °F (1976)
Min Temperature 33 °F 33 °F 24 °F (1985)
Degree Days  
Heating Degree Days 28    
Moisture  
Dew Point 34 °F    
Average Humidity 84    
Maximum Humidity 93    
Minimum Humidity 67    
Precipitation  
Precipitation 0.01 in - - ()
Sea Level Pressure  
Sea Level Pressure 30.08 in    
Wind  
Wind Speed 11 mph (SSE)    
Max Wind Speed 22 mph    
Max Gust Speed 28 mph    
Visibility 8 miles    
Events Rain    
Averages and records for this station are not official NWS values.
T = Trace of Precipitation, MM = Missing Value Source: NWS Daily Summary

Daily Weather History Graph

Daily Weather History Graph

Search for Another Location

Airport or City:

Trip Planner

Search our weather history database for the weather conditions in past years. The results will help you decide how hot, cold, wet, or windy it might be!

Date:

Astronomy

Dec. 12, 2013 Rise Set
Actual Time 7:49 AM PST 4:16 PM PST
Civil Twilight 7:13 AM PST 4:52 PM PST
Nautical Twilight 6:34 AM PST 5:31 PM PST
Astronomical Twilight 5:56 AM PST 6:09 PM PST
Moon 1:40 PM PST (12/12) 3:02 AM PST (12/12)
Length of Visible Light 9h 38m
Length of Day
8h 26m
Waxing Gibbous, 81% of the Moon is Illuminated
Dec 12
Waxing Gibbous
Dec 17
Full
Dec 25
Last Quarter
Jan 1
New
Jan 7
First Quarter

Hourly Weather History & Observations

Time (PST) Temp. Windchill Dew Point Humidity Pressure Visibility Wind Dir Wind Speed Gust Speed Precip Events Conditions
12:53 AM 35.1 °F 31.0 °F 28.9 °F 78% 30.14 in 10.0 mi South 4.6 mph - N/A   Clear
1:53 AM 34.0 °F 28.0 °F 30.0 °F 85% 30.13 in 9.0 mi SSE 6.9 mph - N/A   Clear
2:53 AM 33.1 °F 27.7 °F 30.0 °F 89% 30.13 in 8.0 mi SSE 5.8 mph - N/A   Clear
3:53 AM 34.0 °F 27.2 °F 28.9 °F 82% 30.11 in 10.0 mi SSE 8.1 mph - N/A   Clear
4:53 AM 35.1 °F 27.4 °F 28.0 °F 76% 30.09 in 10.0 mi SSE 10.4 mph - N/A   Clear
5:53 AM 34.0 °F 25.5 °F 28.0 °F 79% 30.08 in 10.0 mi SSE 11.5 mph - N/A   Clear
6:53 AM 34.0 °F 23.4 °F 28.9 °F 82% 30.07 in 10.0 mi SSE 17.3 mph - N/A   Clear
7:53 AM 35.1 °F 25.9 °F 28.9 °F 78% 30.08 in 10.0 mi South 13.8 mph - N/A   Clear
8:53 AM 36.0 °F 26.7 °F 30.0 °F 79% 30.08 in 10.0 mi SSE 15.0 mph - N/A   Clear
9:53 AM 37.0 °F 28.9 °F 30.0 °F 76% 30.09 in 10.0 mi South 12.7 mph 20.7 mph N/A   Clear
10:53 AM 37.9 °F 27.3 °F 30.0 °F 73% 30.09 in 10.0 mi SSE 21.9 mph - N/A   Overcast
11:53 AM 39.9 °F 32.9 °F 30.0 °F 68% 30.06 in 10.0 mi SSE 11.5 mph 19.6 mph N/A   Overcast
12:53 PM 41.0 °F 32.5 °F 30.9 °F 67% 30.05 in 10.0 mi South 17.3 mph - 0.00 in Rain Light Rain
1:53 PM 41.0 °F 32.8 °F 33.1 °F 73% 30.05 in 7.0 mi South 16.1 mph - 0.00 in Rain Light Rain
2:07 PM 39.2 °F 30.5 °F 35.6 °F 87% 30.04 in 3.0 mi South 16.1 mph 24.2 mph 0.00 in Rain Light Rain
2:26 PM 39.2 °F 29.8 °F 35.6 °F 87% 30.03 in 10.0 mi South 18.4 mph - 0.01 in Rain Light Rain
2:53 PM 39.9 °F 31.1 °F 35.1 °F 83% 30.04 in 10.0 mi SSE 17.3 mph 27.6 mph 0.01 in Rain Light Rain
3:27 PM 39.2 °F 31.6 °F 35.6 °F 87% 30.03 in 8.0 mi SSE 12.7 mph 16.1 mph 0.00 in   Overcast
3:53 PM 39.9 °F 32.1 °F 36.0 °F 86% 30.04 in 10.0 mi SSE 13.8 mph 24.2 mph 0.00 in   Overcast
4:18 PM 39.2 °F 32.0 °F 35.6 °F 87% 30.05 in 8.0 mi SSE 11.5 mph - N/A   Overcast
4:53 PM 39.9 °F 34.5 °F 37.0 °F 89% 30.06 in 8.0 mi SSE 8.1 mph - N/A   Overcast
5:53 PM 39.9 °F 32.5 °F 37.0 °F 89% 30.07 in 7.0 mi SSE 12.7 mph - N/A   Overcast
6:53 PM 39.9 °F 33.4 °F 37.9 °F 93% 30.08 in 6.0 mi SSE 10.4 mph - 0.00 in   Overcast
7:00 PM 39.2 °F 32.0 °F 37.4 °F 93% 30.06 in 6.0 mi SSE 11.5 mph - N/A   Overcast
7:23 PM 39.2 °F 31.6 °F 37.4 °F 93% 30.06 in 7.0 mi SSE 12.7 mph - N/A   Overcast
7:53 PM 39.9 °F 32.9 °F 37.9 °F 93% 30.09 in 3.0 mi SSE 11.5 mph - N/A   Overcast
8:31 PM 41.0 °F 33.5 °F 37.4 °F 87% 30.07 in 8.0 mi South 13.8 mph 20.7 mph N/A   Overcast
8:41 PM 41.0 °F 34.3 °F 37.4 °F 87% 30.07 in 8.0 mi South 11.5 mph - N/A   Overcast
8:53 PM 41.0 °F 34.7 °F 37.9 °F 89% 30.09 in 8.0 mi South 10.4 mph 18.4 mph N/A   Overcast
9:53 PM 41.0 °F 33.5 °F 37.9 °F 89% 30.11 in 7.0 mi SSE 13.8 mph - N/A   Overcast
10:53 PM 41.0 °F 34.3 °F 37.9 °F 89% 30.12 in 7.0 mi SSE 11.5 mph - N/A   Overcast
11:53 PM 42.1 °F 35.2 °F 39.0 °F 89% 30.14 in 8.0 mi SSE 12.7 mph - 0.00 in Rain Light Rain